FW0468 Weather Reports


time (UTC)temp
C
wind
direction
speed
KPH
gust
KPH
rain 1hr
cm
rain 24hr
cm
rain mn
cm
humidity
%
barometer
mb
20260505034515 13 360 0.0 1.6 0.00 0.00 0.00 77 1014.0
20260505033017 13 360 0.0 3.2 0.00 0.00 0.00 78 1014.0
20260505031529 13 360 0.0 1.6 0.00 0.00 0.00 76 1013.9
20260505030005 13 360 0.0 0.0 0.00 0.00 0.00 75 1013.9
20260505024511 14 360 0.0 1.6 0.00 0.00 0.00 74 1014.0
20260505023017 14 360 0.0 0.0 0.00 0.00 0.00 74 1014.0
20260505021504 15 360 0.0 0.0 0.00 0.00 0.00 72 1013.9
20260505020003 15 360 0.0 0.0 0.00 0.00 0.00 70 1013.7
20260505014514 16 254 0.0 0.0 0.00 0.00 0.00 67 1013.7
20260505013013 16 254 0.0 0.0 0.00 0.00 0.00 64 1013.7
20260505011520 17 254 0.0 0.0 0.00 0.00 0.00 60 1013.5
20260505010011 18 254 0.0 3.2 0.00 0.00 0.00 56 1013.5
20260505004508 19 360 0.0 3.2 0.00 0.00 0.00 49 1013.6
20260505003012 20 254 0.0 3.2 0.00 0.00 0.00 49 1013.6
20260505001516 22 360 1.6 3.2 0.00 0.00 0.00 43 1013.6
20260505000023 22 360 3.2 12.9 0.00 0.00 0.00 39 1013.7
20260504234507 23 229 1.6 14.5 0.00 0.00 0.00 37 1013.5
20260504233010 23 228 3.2 11.3 0.00 0.00 0.00 36 1013.7
20260504231515 24 202 3.2 14.5 0.00 0.00 0.00 35 1013.8
20260504230019 24 241 8.0 14.5 0.00 0.00 0.00 34 1013.8
20260504224525 24 202 8.0 14.5 0.00 0.00 0.00 32 1013.9
20260504223010 24 252 4.8 14.5 0.00 0.00 0.00 33 1014.0
20260504221511 25 216 11.3 17.7 0.00 0.00 0.00 31 1014.0
20260504220018 25 187 3.2 16.1 0.00 0.00 0.00 30 1014.1
20260504214535 25 254 8.0 11.3 0.00 0.00 0.00 33 1014.2
20260504213028 25 247 8.0 17.7 0.00 0.00 0.00 32 1014.2
20260504211510 25 236 9.7 22.5 0.00 0.00 0.00 31 1014.2
20260504210020 25 153 6.4 14.5 0.00 0.00 0.00 32 1014.0
20260504204522 24 127 6.4 12.9 0.00 0.00 0.00 33 1014.4
20260504203024 25 162 9.7 14.5 0.00 0.00 0.00 34 1014.2
20260504201526 24 246 6.4 14.5 0.00 0.00 0.00 36 1014.3
20260504200018 24 173 3.2 17.7 0.00 0.00 0.00 35 1014.5
20260504194519 25 252 11.3 19.3 0.00 0.00 0.00 33 1014.8
20260504193023 24 196 6.4 17.7 0.00 0.00 0.00 34 1015.0
20260504191526 24 123 1.6 11.3 0.00 0.00 0.00 33 1015.1
20260504190028 24 203 8.0 14.5 0.00 0.00 0.00 33 1015.5
20260504184526 23 196 3.2 11.3 0.00 0.00 0.00 35 1015.6
20260504183031 23 360 1.6 14.5 0.00 0.00 0.00 36 1015.9
20260504181526 23 360 3.2 14.5 0.00 0.00 0.00 39 1016.0
20260504180027 23 360 1.6 16.1 0.00 0.00 0.00 39 1016.3
20260504174516 23 360 4.8 12.9 0.00 0.00 0.00 40 1016.4
20260504173018 23 360 3.2 12.9 0.00 0.00 0.00 38 1016.5
20260504171504 22 269 4.8 12.9 0.00 0.00 0.00 39 1016.6
20260504081508 12 213 0.0 3.2 0.00 0.00 0.00 61 1017.0
20260504050022 9 86 0.0 3.2 0.00 0.00 0.00 83 1018.2
20260504044511 9 86 0.0 0.0 0.00 0.00 0.00 81 1018.2
20260504043013 10 86 0.0 0.0 0.00 0.00 0.00 82 1018.1
20260504041517 10 86 0.0 0.0 0.00 0.00 0.00 81 1018.4
20260504040022 10 86 0.0 0.0 0.00 0.00 0.00 80 1018.5